START_TIME,STEP,MOV.,M35,t_acc.,PL05,t_acc.,PL06,t_acc.,PL07,t_acc.
1981-08-30 21:01:05.200 ,0,0,,0,,0,,0,,0
1981-08-30 21:01:10.000 ,0,0,,0,,0,,0,,0
1981-08-30 21:01:14.800 ,0,0,,0,,0,,0,,0
1981-08-30 21:01:19.600 ,0,0,,0,,0,,0,,0
1981-08-30 21:01:24.400 ,0,0,0.,4.8,1.,4.8,0.,4.8,0.,4.8
1981-08-30 21:01:12.400 ,0,0,0.,4.8,3.,4.8,0.,4.8,0.,4.8
1981-08-30 21:01:17.200 ,0,0,0.,4.8,2.,4.8,0.,4.8,1.,4.8
1981-08-30 21:01:22.000 ,0,0,0.,4.8,2.,4.8,0.,4.8,1.,4.8
1981-08-30 21:01:26.800 ,0,0,0.,4.8,3.,4.8,0.,4.8,1.,4.8
1981-08-30 21:01:31.600 ,0,0,0.,4.8,2.,4.8,1.,4.8,0.,4.8
1981-08-30 21:01:36.400 ,5,0,0.,4.8,0.,4.8,0.,4.8,0.,4.8
1981-08-30 21:01:41.200 ,5,0,0.,4.8,0.,4.8,0.,4.8,0.,4.8
1981-08-30 21:01:46.000 ,5,0,0.,4.8,2.,4.8,1.,4.8,1.,4.8
1981-08-30 21:01:50.800 ,5,0,0.,4.8,2.,4.8,2.,4.8,0.,4.8
1981-08-30 21:01:55.600 ,5,0,0.,4.8,4.,4.8,0.,4.8,1.,4.8
1981-08-30 21:02:00.400 ,5,0,0.,4.8,3.,4.8,1.,4.8,0.,4.8
1981-08-30 21:02:05.200 ,5,0,0.,4.8,2.,4.8,1.,4.8,0.,4.8
1981-08-30 21:02:10.000 ,5,0,0.,4.8,4.,4.8,1.,4.8,0.,4.8
1981-08-30 21:02:14.800 ,5,0,0.,4.8,3.,4.8,0.,4.8,1.,4.8
1981-08-30 21:02:19.600 ,5,0,0.,4.8,4.,4.8,0.,4.8,3.,4.8
1981-08-30 21:02:24.400 ,4,0,0.,4.8,6.,4.8,0.,4.8,0.,4.8
1981-08-30 21:02:29.200 ,4,0,0.,4.8,5.,4.8,0.,4.8,0.,4.8
1981-08-30 21:02:34.000 ,4,0,0.,4.8,1.,4.8,0.,4.8,0.,4.8
1981-08-30 21:02:38.800 ,4,0,0.,4.8,1.,4.8,0.,4.8,0.,4.8
1981-08-30 21:02:43.600 ,4,0,0.,4.8,3.,4.8,0.,4.8,0.,4.8
1981-08-30 21:02:48.400 ,4,0,0.,4.8,0.,4.8,2.,4.8,0.,4.8
1981-08-30 21:02:53.200 ,4,0,0.,4.8,1.,4.8,1.,4.8,0.,4.8
1981-08-30 21:02:58.000 ,4,0,0.,4.8,1.,4.8,2.,4.8,0.,4.8
1981-08-30 21:03:02.800 ,4,0,0.,4.8,1.,4.8,1.,4.8,1.,4.8
1981-08-30 21:03:07.600 ,4,0,0.,4.8,1.,4.8,0.,4.8,0.,4.8
1981-08-30 21:03:12.400 ,3,0,0.,4.8,4.,4.8,0.,4.8,0.,4.8
1981-08-30 21:03:17.200 ,3,0,0.,4.8,3.,4.8,1.,4.8,1.,4.8
1981-08-30 21:03:22.000 ,3,0,0.,4.8,3.,4.8,0.,4.8,0.,4.8
1981-08-30 21:03:26.800 ,3,0,0.,4.8,1.,4.8,0.,4.8,0.,4.8
1981-08-30 21:03:31.600 ,3,0,0.,4.8,2.,4.8,0.,4.8,0.,4.8
1981-08-30 21:03:36.400 ,3,0,0.,4.8,2.,4.8,2.,4.8,0.,4.8
1981-08-30 21:03:41.200 ,3,0,0.,4.8,4.,4.8,1.,4.8,0.,4.8
1981-08-30 21:03:46.000 ,3,0,0.,4.8,3.,4.8,0.,4.8,1.,4.8
1981-08-30 21:03:50.800 ,3,0,0.,4.8,2.,4.8,0.,4.8,0.,4.8
1981-08-30 21:03:55.600 ,3,0,0.,4.8,0.,4.8,0.,4.8,0.,4.8
1981-08-30 21:04:00.400 ,2,0,0.,4.8,2.,4.8,0.,4.8,0.,4.8
1981-08-30 21:04:05.200 ,2,0,0.,4.8,3.,4.8,1.,4.8,0.,4.8
1981-08-30 21:04:10.000 ,2,0,0.,4.8,4.,4.8,0.,4.8,0.,4.8
1981-08-30 21:04:14.800 ,2,0,0.,4.8,1.,4.8,0.,4.8,1.,4.8
1981-08-30 21:04:19.600 ,2,0,0.,4.8,2.,4.8,0.,4.8,0.,4.8
1981-08-30 21:04:24.400 ,2,0,0.,4.8,1.,4.8,0.,4.8,0.,4.8
1981-08-30 21:04:29.200 ,2,0,0.,4.8,1.,4.8,0.,4.8,0.,4.8
1981-08-30 21:04:34.000 ,2,0,0.,4.8,0.,4.8,0.,4.8,0.,4.8
1981-08-30 21:04:38.800 ,2,0,0.,4.8,0.,4.8,1.,4.8,0.,4.8
1981-08-30 21:04:43.600 ,2,0,0.,4.8,0.,4.8,0.,4.8,0.,4.8
1981-08-30 21:04:48.400 ,1,0,0.,4.8,2.,4.8,1.,4.8,2.,4.8
1981-08-30 21:04:53.200 ,1,0,0.,4.8,0.,4.8,0.,4.8,0.,4.8
1981-08-30 21:04:58.000 ,1,0,0.,4.8,1.,4.8,1.,4.8,0.,4.8
1981-08-30 21:05:02.800 ,1,0,0.,4.8,3.,4.8,1.,4.8,0.,4.8
1981-08-30 21:05:07.600 ,1,0,0.,4.8,2.,4.8,2.,4.8,0.,4.8
1981-08-30 21:05:12.400 ,1,0,0.,4.8,3.,4.8,0.,4.8,0.,4.8
1981-08-30 21:05:17.200 ,1,0,0.,4.8,0.,4.8,0.,4.8,1.,4.8
1981-08-30 21:05:22.000 ,1,0,0.,4.8,1.,4.8,1.,4.8,0.,4.8
1981-08-30 21:05:26.800 ,1,0,0.,4.8,2.,4.8,2.,4.8,0.,4.8
1981-08-30 21:05:31.600 ,1,0,0.,4.8,2.,4.8,0.,4.8,0.,4.8
1981-08-30 21:05:36.400 ,0,0,0.,4.8,0.,4.8,0.,4.8,0.,4.8
1981-08-30 21:05:41.200 ,0,0,0.,4.8,1.,4.8,0.,4.8,0.,4.8
1981-08-30 21:05:46.000 ,0,0,0.,4.8,5.,4.8,1.,4.8,1.,4.8
1981-08-30 21:05:50.800 ,0,0,0.,4.8,2.,4.8,3.,4.8,1.,4.8
1981-08-30 21:05:55.600 ,0,0,0.,4.8,1.,4.8,0.,4.8,1.,4.8
1981-08-30 21:06:00.400 ,0,0,0.,4.8,4.,4.8,0.,4.8,1.,4.8
1981-08-30 21:06:05.200 ,0,0,0.,4.8,4.,4.8,0.,4.8,1.,4.8
1981-08-30 21:06:10.000 ,0,0,0.,4.8,6.,4.8,0.,4.8,1.,4.8
1981-08-30 21:06:14.800 ,0,0,0.,4.8,1.,4.8,0.,4.8,1.,4.8
1981-08-30 21:06:19.600 ,0,0,0.,4.8,3.,4.8,1.,4.8,0.,4.8
1981-08-30 21:06:24.400 ,0,0,0.,4.8,1.,4.8,0.,4.8,0.,4.8
1981-08-30 21:06:29.200 ,0,0,0.,4.8,2.,4.8,1.,4.8,0.,4.8
1981-08-30 21:06:34.000 ,0,0,0.,4.8,4.,4.8,0.,4.8,4.,4.8
1981-08-30 21:06:38.800 ,0,0,0.,4.8,3.,4.8,1.,4.8,1.,4.8
1981-08-30 21:06:43.600 ,0,0,0.,4.8,5.,4.8,0.,4.8,1.,4.8
1981-08-30 21:06:48.400 ,0,0,0.,4.8,3.,4.8,0.,4.8,0.,4.8
1981-08-30 21:06:53.200 ,0,0,0.,4.8,2.,4.8,1.,4.8,0.,4.8
1981-08-30 21:06:58.000 ,0,0,0.,4.8,1.,4.8,2.,4.8,0.,4.8
1981-08-30 21:07:02.800 ,0,0,0.,4.8,5.,4.8,2.,4.8,0.,4.8
1981-08-30 21:07:07.600 ,0,0,0.,4.8,0.,4.8,0.,4.8,0.,4.8
1981-08-30 21:07:12.400 ,1,0,0.,4.8,0.,4.8,4.,4.8,0.,4.8
1981-08-30 21:07:17.200 ,1,0,0.,4.8,5.,4.8,1.,4.8,1.,4.8
1981-08-30 21:07:22.000 ,1,0,0.,4.8,1.,4.8,1.,4.8,0.,4.8
1981-08-30 21:07:26.800 ,1,0,0.,4.8,4.,4.8,0.,4.8,0.,4.8
1981-08-30 21:07:31.600 ,1,0,0.,4.8,4.,4.8,0.,4.8,0.,4.8
1981-08-30 21:07:36.400 ,1,0,0.,4.8,2.,4.8,0.,4.8,0.,4.8
1981-08-30 21:07:41.200 ,1,0,0.,4.8,0.,4.8,1.,4.8,0.,4.8
1981-08-30 21:07:46.000 ,1,0,0.,4.8,1.,4.8,2.,4.8,0.,4.8
1981-08-30 21:07:50.800 ,1,0,0.,4.8,1.,4.8,0.,4.8,1.,4.8
1981-08-30 21:07:55.600 ,1,0,0.,4.8,2.,4.8,1.,4.8,1.,4.8
1981-08-30 21:08:00.400 ,2,0,0.,4.8,1.,4.8,0.,4.8,1.,4.8
1981-08-30 21:08:05.200 ,2,0,0.,4.8,3.,4.8,0.,4.8,0.,4.8
1981-08-30 21:08:10.000 ,2,0,0.,4.8,4.,4.8,2.,4.8,0.,4.8
1981-08-30 21:08:14.800 ,2,0,0.,4.8,1.,4.8,1.,4.8,0.,4.8
1981-08-30 21:08:19.600 ,2,0,0.,4.8,2.,4.8,0.,4.8,0.,4.8
1981-08-30 21:08:24.400 ,2,0,0.,4.8,2.,4.8,1.,4.8,0.,4.8
1981-08-30 21:08:29.200 ,2,0,0.,4.8,3.,4.8,0.,4.8,0.,4.8
1981-08-30 21:08:34.000 ,2,0,0.,4.8,0.,4.8,2.,4.8,0.,4.8
1981-08-30 21:08:38.800 ,2,0,0.,4.8,5.,4.8,1.,4.8,0.,4.8
1981-08-30 21:08:43.600 ,2,0,0.,4.8,3.,4.8,1.,4.8,0.,4.8
1981-08-30 21:08:48.400 ,3,0,0.,4.8,3.,4.8,0.,4.8,0.,4.8
1981-08-30 21:08:53.200 ,3,0,0.,4.8,1.,4.8,0.,4.8,0.,4.8
1981-08-30 21:08:58.000 ,3,0,0.,4.8,0.,4.8,0.,4.8,1.,4.8
1981-08-30 21:09:02.800 ,3,0,0.,4.8,1.,4.8,0.,4.8,0.,4.8
1981-08-30 21:09:07.600 ,3,0,0.,4.8,1.,4.8,1.,4.8,1.,4.8
1981-08-30 21:09:12.400 ,4,0,0.,4.8,1.,4.8,1.,4.8,0.,4.8
1981-08-30 21:09:17.200 ,4,0,0.,4.8,2.,4.8,1.,4.8,0.,4.8
1981-08-30 21:09:22.000 ,4,0,0.,4.8,0.,4.8,1.,4.8,0.,4.8
1981-08-30 21:09:26.800 ,4,0,0.,4.8,0.,4.8,0.,4.8,0.,4.8
1981-08-30 21:09:31.600 ,4,0,0.,4.8,2.,4.8,0.,4.8,0.,4.8
1981-08-30 21:09:36.400 ,5,0,0.,4.8,3.,4.8,0.,4.8,0.,4.8
1981-08-30 21:09:41.200 ,5,0,0.,4.8,0.,4.8,0.,4.8,0.,4.8
1981-08-30 21:09:46.000 ,5,0,0.,4.8,2.,4.8,0.,4.8,2.,4.8
1981-08-30 21:09:50.800 ,5,0,0.,4.8,1.,4.8,0.,4.8,1.,4.8
1981-08-30 21:09:55.600 ,5,0,0.,4.8,1.,4.8,0.,4.8,0.,4.8
1981-08-30 21:10:00.400 ,6,0,0.,4.8,4.,4.8,0.,4.8,2.,4.8
1981-08-30 21:10:05.200 ,6,0,0.,4.8,2.,4.8,1.,4.8,0.,4.8
1981-08-30 21:10:10.000 ,6,0,0.,4.8,1.,4.8,1.,4.8,0.,4.8
1981-08-30 21:10:14.800 ,6,0,0.,4.8,1.,4.8,0.,4.8,0.,4.8
1981-08-30 21:10:19.600 ,6,0,0.,4.8,2.,4.8,0.,4.8,0.,4.8
1981-08-30 21:10:24.400 ,7,0,0.,4.8,2.,4.8,1.,4.8,0.,4.8
1981-08-30 21:10:29.200 ,7,0,0.,4.8,1.,4.8,0.,4.8,0.,4.8
1981-08-30 21:10:34.000 ,7,0,0.,4.8,0.,4.8,0.,4.8,0.,4.8
1981-08-30 21:10:38.800 ,7,0,0.,4.8,1.,4.8,0.,4.8,0.,4.8
1981-08-30 21:10:43.600 ,7,0,0.,4.8,0.,4.8,0.,4.8,1.,4.8
1981-08-30 21:10:48.400 ,7,0,0.,4.8,0.,4.8,0.,4.8,1.,4.8
1981-08-30 21:10:53.200 ,7,0,0.,4.8,3.,4.8,0.,4.8,0.,4.8
1981-08-30 21:10:58.000 ,7,0,0.,4.8,4.,4.8,0.,4.8,0.,4.8
1981-08-30 21:11:02.800 ,7,0,0.,4.8,1.,4.8,0.,4.8,0.,4.8
1981-08-30 21:11:07.600 ,7,0,0.,4.8,1.,4.8,1.,4.8,1.,4.8
1981-08-30 21:11:12.400 ,6,0,0.,4.8,0.,4.8,0.,4.8,0.,4.8
1981-08-30 21:11:17.200 ,6,0,0.,4.8,0.,4.8,0.,4.8,0.,4.8
1981-08-30 21:11:22.000 ,6,0,0.,4.8,2.,4.8,1.,4.8,0.,4.8
1981-08-30 21:11:26.800 ,6,0,0.,4.8,2.,4.8,1.,4.8,0.,4.8
1981-08-30 21:11:31.600 ,6,0,0.,4.8,1.,4.8,2.,4.8,0.,4.8
1981-08-30 21:11:36.400 ,5,0,0.,4.8,2.,4.8,0.,4.8,0.,4.8
1981-08-30 21:11:41.200 ,5,0,0.,4.8,0.,4.8,0.,4.8,0.,4.8
1981-08-30 21:11:46.000 ,5,0,0.,4.8,3.,4.8,1.,4.8,1.,4.8
1981-08-30 21:11:50.800 ,5,0,0.,4.8,3.,4.8,0.,4.8,0.,4.8
1981-08-30 21:11:55.600 ,5,0,0.,4.8,0.,4.8,0.,4.8,0.,4.8
1981-08-30 21:12:00.400 ,4,0,0.,4.8,3.,4.8,0.,4.8,1.,4.8
1981-08-30 21:12:05.200 ,4,0,0.,4.8,1.,4.8,1.,4.8,2.,4.8
1981-08-30 21:12:10.000 ,4,0,0.,4.8,1.,4.8,0.,4.8,0.,4.8
1981-08-30 21:12:14.800 ,4,0,0.,4.8,3.,4.8,0.,4.8,0.,4.8
1981-08-30 21:12:19.600 ,4,0,0.,4.8,1.,4.8,2.,4.8,0.,4.8
1981-08-30 21:12:24.400 ,3,0,0.,4.8,2.,4.8,2.,4.8,0.,4.8
1981-08-30 21:12:29.200 ,3,0,0.,4.8,1.,4.8,1.,4.8,0.,4.8
1981-08-30 21:12:34.000 ,3,0,0.,4.8,1.,4.8,0.,4.8,0.,4.8
1981-08-30 21:12:38.800 ,3,0,0.,4.8,0.,4.8,0.,4.8,0.,4.8
1981-08-30 21:12:43.600 ,3,0,0.,4.8,2.,4.8,0.,4.8,0.,4.8
1981-08-30 21:12:48.400 ,2,0,0.,4.8,0.,4.8,1.,4.8,2.,4.8
1981-08-30 21:12:53.200 ,2,0,0.,4.8,5.,4.8,3.,4.8,0.,4.8
1981-08-30 21:12:58.000 ,2,0,0.,4.8,2.,4.8,2.,4.8,0.,4.8
1981-08-30 21:13:02.800 ,2,0,0.,4.8,3.,4.8,0.,4.8,1.,4.8
1981-08-30 21:13:07.600 ,2,0,0.,4.8,0.,4.8,0.,4.8,0.,4.8
1981-08-30 21:13:12.400 ,1,0,0.,4.8,2.,4.8,0.,4.8,0.,4.8
1981-08-30 21:13:17.200 ,1,0,0.,4.8,3.,4.8,0.,4.8,1.,4.8
1981-08-30 21:13:22.000 ,1,0,0.,4.8,1.,4.8,2.,4.8,1.,4.8
1981-08-30 21:13:26.800 ,1,0,0.,4.8,1.,4.8,0.,4.8,1.,4.8
1981-08-30 21:13:31.600 ,1,0,0.,4.8,2.,4.8,2.,4.8,0.,4.8
1981-08-30 21:13:36.400 ,0,0,0.,4.8,0.,4.8,1.,4.8,0.,4.8
1981-08-30 21:13:41.200 ,0,0,0.,4.8,3.,4.8,0.,4.8,0.,4.8
1981-08-30 21:13:46.000 ,0,0,0.,4.8,1.,4.8,2.,4.8,1.,4.8
1981-08-30 21:13:50.800 ,0,0,0.,4.8,3.,4.8,0.,4.8,3.,4.8
1981-08-30 21:13:55.600 ,0,0,0.,4.8,3.,4.8,0.,4.8,0.,4.8
1981-08-30 21:14:00.400 ,0,0,0.,4.8,4.,4.8,0.,4.8,0.,4.8
1981-08-30 21:14:05.200 ,0,0,0.,4.8,3.,4.8,0.,4.8,0.,4.8
1981-08-30 21:14:10.000 ,0,0,0.,4.8,4.,4.8,0.,4.8,0.,4.8
1981-08-30 21:14:14.800 ,0,0,0.,4.8,3.,4.8,0.,4.8,0.,4.8
1981-08-30 21:14:19.600 ,0,0,0.,4.8,0.,4.8,0.,4.8,0.,4.8
1981-08-30 21:14:24.400 ,1,0,0.,4.8,3.,4.8,1.,4.8,1.,4.8
1981-08-30 21:14:29.200 ,1,0,0.,4.8,1.,4.8,1.,4.8,0.,4.8
1981-08-30 21:14:34.000 ,1,0,0.,4.8,2.,4.8,2.,4.8,1.,4.8
1981-08-30 21:14:38.800 ,1,0,0.,4.8,1.,4.8,1.,4.8,0.,4.8
1981-08-30 21:14:43.600 ,1,0,0.,4.8,4.,4.8,2.,4.8,0.,4.8
1981-08-30 21:14:48.400 ,2,0,0.,4.8,1.,4.8,1.,4.8,0.,4.8
1981-08-30 21:14:53.200 ,2,0,0.,4.8,2.,4.8,0.,4.8,1.,4.8
1981-08-30 21:14:58.000 ,2,0,0.,4.8,0.,4.8,1.,4.8,0.,4.8
1981-08-30 21:15:02.800 ,2,0,0.,4.8,3.,4.8,1.,4.8,0.,4.8
1981-08-30 21:15:07.600 ,2,0,0.,4.8,2.,4.8,0.,4.8,0.,4.8
1981-08-30 21:15:12.400 ,3,0,0.,4.8,2.,4.8,1.,4.8,0.,4.8
1981-08-30 21:15:17.200 ,3,0,0.,4.8,0.,4.8,0.,4.8,0.,4.8
1981-08-30 21:15:22.000 ,3,0,0.,4.8,1.,4.8,0.,4.8,0.,4.8
1981-08-30 21:15:26.800 ,3,0,0.,4.8,2.,4.8,0.,4.8,0.,4.8
1981-08-30 21:15:31.600 ,3,0,0.,4.8,2.,4.8,0.,4.8,0.,4.8
1981-08-30 21:15:36.400 ,3,0,0.,4.8,1.,4.8,0.,4.8,0.,4.8
1981-08-30 21:15:41.200 ,3,0,0.,4.8,0.,4.8,0.,4.8,0.,4.8
1981-08-30 21:15:46.000 ,3,0,0.,4.8,1.,4.8,2.,4.8,0.,4.8
1981-08-30 21:15:50.800 ,3,0,0.,4.8,3.,4.8,0.,4.8,1.,4.8
1981-08-30 21:15:55.600 ,3,0,0.,4.8,1.,4.8,0.,4.8,1.,4.8
1981-08-30 21:16:00.400 ,4,0,0.,4.8,1.,4.8,0.,4.8,1.,4.8
1981-08-30 21:16:05.200 ,4,0,0.,4.8,1.,4.8,0.,4.8,0.,4.8
1981-08-30 21:16:10.000 ,4,0,0.,4.8,4.,4.8,0.,4.8,0.,4.8
1981-08-30 21:16:14.800 ,4,0,0.,4.8,0.,4.8,1.,4.8,0.,4.8
1981-08-30 21:16:19.600 ,4,0,0.,4.8,3.,4.8,1.,4.8,0.,4.8
1981-08-30 21:16:24.400 ,4,0,0.,4.8,0.,4.8,1.,4.8,0.,4.8
1981-08-30 21:16:29.200 ,4,0,0.,4.8,0.,4.8,0.,4.8,0.,4.8
1981-08-30 21:16:34.000 ,4,0,0.,4.8,1.,4.8,1.,4.8,0.,4.8
1981-08-30 21:16:38.800 ,4,0,0.,4.8,0.,4.8,0.,4.8,0.,4.8
1981-08-30 21:16:43.600 ,4,0,0.,4.8,0.,4.8,0.,4.8,1.,4.8
1981-08-30 21:16:48.400 ,5,0,0.,4.8,1.,4.8,1.,4.8,1.,4.8
1981-08-30 21:16:53.200 ,5,0,0.,4.8,1.,4.8,0.,4.8,0.,4.8
1981-08-30 21:16:58.000 ,5,0,0.,4.8,2.,4.8,1.,4.8,1.,4.8
1981-08-30 21:17:02.800 ,5,0,0.,4.8,4.,4.8,2.,4.8,1.,4.8
1981-08-30 21:17:07.600 ,5,0,0.,4.8,2.,4.8,0.,4.8,1.,4.8
1981-08-30 21:17:12.400 ,5,0,0.,4.8,4.,4.8,1.,4.8,0.,4.8
1981-08-30 21:17:17.200 ,5,0,0.,4.8,2.,4.8,1.,4.8,0.,4.8
1981-08-30 21:17:22.000 ,5,0,0.,4.8,4.,4.8,2.,4.8,1.,4.8
1981-08-30 21:17:26.800 ,5,0,0.,4.8,3.,4.8,0.,4.8,0.,4.8
1981-08-30 21:17:31.600 ,5,0,0.,4.8,4.,4.8,1.,4.8,0.,4.8
1981-08-30 21:17:36.400 ,6,0,0.,4.8,5.,4.8,0.,4.8,0.,4.8
1981-08-30 21:17:41.200 ,6,0,0.,4.8,1.,4.8,0.,4.8,1.,4.8
1981-08-30 21:17:46.000 ,6,0,0.,4.8,2.,4.8,0.,4.8,1.,4.8
1981-08-30 21:17:50.800 ,6,0,0.,4.8,0.,4.8,0.,4.8,0.,4.8
1981-08-30 21:17:55.600 ,6,0,0.,4.8,0.,4.8,0.,4.8,1.,4.8
1981-08-30 21:18:00.400 ,6,0,0.,4.8,3.,4.8,0.,4.8,0.,4.8
1981-08-30 21:18:05.200 ,6,0,0.,4.8,2.,4.8,1.,4.8,0.,4.8
1981-08-30 21:18:10.000 ,6,0,0.,4.8,1.,4.8,0.,4.8,0.,4.8
1981-08-30 21:18:14.800 ,6,0,0.,4.8,0.,4.8,0.,4.8,0.,4.8
1981-08-30 21:18:19.600 ,6,0,0.,4.8,1.,4.8,0.,4.8,0.,4.8
1981-08-30 21:18:24.400 ,7,0,0.,4.8,1.,4.8,0.,4.8,0.,4.8
1981-08-30 21:18:29.200 ,7,0,0.,4.8,0.,4.8,0.,4.8,0.,4.8
1981-08-30 21:18:34.000 ,7,0,0.,4.8,0.,4.8,0.,4.8,0.,4.8
1981-08-30 21:18:38.800 ,7,0,0.,4.8,0.,4.8,0.,4.8,0.,4.8
1981-08-30 21:18:43.600 ,7,0,0.,4.8,0.,4.8,0.,4.8,0.,4.8
1981-08-30 21:18:48.400 ,7,0,0.,4.8,1.,4.8,0.,4.8,0.,4.8
1981-08-30 21:18:53.200 ,7,0,0.,4.8,0.,4.8,0.,4.8,0.,4.8
1981-08-30 21:18:58.000 ,7,0,0.,4.8,0.,4.8,0.,4.8,0.,4.8
1981-08-30 21:19:02.800 ,7,0,0.,4.8,0.,4.8,0.,4.8,0.,4.8
1981-08-30 21:19:07.600 ,7,0,0.,4.8,0.,4.8,0.,4.8,0.,4.8
1981-08-30 21:19:12.400 ,7,0,0.,4.8,0.,4.8,0.,4.8,0.,4.8
1981-08-30 21:19:17.200 ,7,0,0.,4.8,0.,4.8,1.,4.8,0.,4.8
1981-08-30 21:19:22.000 ,7,0,0.,4.8,0.,4.8,0.,4.8,0.,4.8
1981-08-30 21:19:26.800 ,7,0,0.,4.8,0.,4.8,0.,4.8,0.,4.8
1981-08-30 21:19:31.600 ,7,0,0.,4.8,0.,4.8,0.,4.8,0.,4.8
1981-08-30 21:19:36.400 ,7,0,0.,4.8,1.,4.8,0.,4.8,0.,4.8
1981-08-30 21:19:41.200 ,7,0,0.,4.8,0.,4.8,0.,4.8,0.,4.8
1981-08-30 21:19:46.000 ,7,0,0.,4.8,0.,4.8,0.,4.8,0.,4.8
1981-08-30 21:19:50.800 ,7,0,0.,4.8,0.,4.8,0.,4.8,0.,4.8
1981-08-30 21:19:55.600 ,7,0,0.,4.8,0.,4.8,0.,4.8,0.,4.8
1981-08-30 21:20:00.400 ,6,0,0.,4.8,1.,4.8,0.,4.8,0.,4.8
1981-08-30 21:20:05.200 ,6,0,0.,4.8,0.,4.8,0.,4.8,0.,4.8
1981-08-30 21:20:10.000 ,6,0,0.,4.8,3.,4.8,0.,4.8,0.,4.8
1981-08-30 21:20:14.800 ,6,0,0.,4.8,1.,4.8,0.,4.8,0.,4.8
1981-08-30 21:20:19.600 ,6,0,0.,4.8,0.,4.8,0.,4.8,0.,4.8
1981-08-30 21:20:24.400 ,6,0,0.,4.8,1.,4.8,0.,4.8,0.,4.8
1981-08-30 21:20:29.200 ,6,0,0.,4.8,2.,4.8,0.,4.8,0.,4.8
1981-08-30 21:20:34.000 ,6,0,0.,4.8,0.,4.8,1.,4.8,1.,4.8
1981-08-30 21:20:38.800 ,6,0,0.,4.8,3.,4.8,0.,4.8,0.,4.8
1981-08-30 21:20:43.600 ,6,0,0.,4.8,0.,4.8,0.,4.8,0.,4.8
1981-08-30 21:20:48.400 ,5,0,0.,4.8,1.,4.8,1.,4.8,0.,4.8
1981-08-30 21:20:53.200 ,5,0,0.,4.8,1.,4.8,2.,4.8,1.,4.8
1981-08-30 21:20:58.000 ,5,0,0.,4.8,3.,4.8,1.,4.8,0.,4.8
1981-08-30 21:21:02.800 ,5,0,0.,4.8,2.,4.8,2.,4.8,1.,4.8
1981-08-30 21:21:07.600 ,5,0,0.,4.8,2.,4.8,1.,4.8,1.,4.8
1981-08-30 21:21:12.400 ,5,0,0.,4.8,2.,4.8,4.,4.8,0.,4.8
1981-08-30 21:21:17.200 ,5,0,0.,4.8,2.,4.8,1.,4.8,1.,4.8
1981-08-30 21:21:22.000 ,5,0,0.,4.8,3.,4.8,0.,4.8,0.,4.8
1981-08-30 21:21:26.800 ,5,0,0.,4.8,3.,4.8,0.,4.8,1.,4.8
1981-08-30 21:21:31.600 ,5,0,0.,4.8,2.,4.8,3.,4.8,0.,4.8
1981-08-30 21:21:36.400 ,4,0,0.,4.8,4.,4.8,1.,4.8,0.,4.8
1981-08-30 21:21:41.200 ,4,0,0.,4.8,5.,4.8,1.,4.8,1.,4.8
1981-08-30 21:21:46.000 ,4,0,0.,4.8,4.,4.8,0.,4.8,0.,4.8
1981-08-30 21:21:50.800 ,4,0,0.,4.8,2.,4.8,0.,4.8,0.,4.8
1981-08-30 21:21:55.600 ,4,0,0.,4.8,3.,4.8,1.,4.8,0.,4.8
1981-08-30 21:22:00.400 ,4,0,0.,4.8,1.,4.8,1.,4.8,1.,4.8
1981-08-30 21:22:05.200 ,4,0,0.,4.8,1.,4.8,0.,4.8,0.,4.8
1981-08-30 21:22:10.000 ,4,0,0.,4.8,1.,4.8,1.,4.8,0.,4.8
1981-08-30 21:22:14.800 ,4,0,0.,4.8,3.,4.8,0.,4.8,0.,4.8
1981-08-30 21:22:19.600 ,4,0,0.,4.8,2.,4.8,1.,4.8,0.,4.8
1981-08-30 21:22:24.400 ,3,0,0.,4.8,1.,4.8,0.,4.8,0.,4.8
1981-08-30 21:22:29.200 ,3,0,0.,4.8,3.,4.8,0.,4.8,0.,4.8
1981-08-30 21:22:34.000 ,3,0,0.,4.8,4.,4.8,0.,4.8,0.,4.8
1981-08-30 21:22:38.800 ,3,0,0.,4.8,3.,4.8,0.,4.8,0.,4.8
1981-08-30 21:22:43.600 ,3,0,0.,4.8,5.,4.8,0.,4.8,0.,4.8
1981-08-30 21:22:48.400 ,3,0,0.,4.8,3.,4.8,0.,4.8,0.,4.8
1981-08-30 21:22:53.200 ,3,0,0.,4.8,3.,4.8,0.,4.8,0.,4.8
1981-08-30 21:22:58.000 ,3,0,0.,4.8,1.,4.8,0.,4.8,0.,4.8
1981-08-30 21:23:02.800 ,3,0,0.,4.8,3.,4.8,0.,4.8,0.,4.8
1981-08-30 21:23:07.600 ,3,0,0.,4.8,6.,4.8,0.,4.8,0.,4.8
1981-08-30 21:23:12.400 ,2,0,0.,4.8,0.,4.8,1.,4.8,0.,4.8
1981-08-30 21:23:17.200 ,2,0,0.,4.8,2.,4.8,0.,4.8,0.,4.8
1981-08-30 21:23:22.000 ,2,0,0.,4.8,4.,4.8,1.,4.8,0.,4.8
1981-08-30 21:23:26.800 ,2,0,0.,4.8,1.,4.8,0.,4.8,0.,4.8
1981-08-30 21:23:31.600 ,2,0,0.,4.8,1.,4.8,0.,4.8,1.,4.8
1981-08-30 21:23:36.400 ,2,0,0.,4.8,3.,4.8,1.,4.8,0.,4.8
1981-08-30 21:23:41.200 ,2,0,0.,4.8,0.,4.8,0.,4.8,0.,4.8
1981-08-30 21:23:46.000 ,2,0,0.,4.8,0.,4.8,0.,4.8,0.,4.8
1981-08-30 21:23:50.800 ,2,0,0.,4.8,1.,4.8,0.,4.8,0.,4.8
1981-08-30 21:23:55.600 ,2,0,0.,4.8,0.,4.8,0.,4.8,0.,4.8
1981-08-30 21:24:00.400 ,1,0,0.,4.8,2.,4.8,0.,4.8,1.,4.8
1981-08-30 21:24:05.200 ,1,0,0.,4.8,4.,4.8,1.,4.8,0.,4.8
1981-08-30 21:24:10.000 ,1,0,0.,4.8,1.,4.8,0.,4.8,0.,4.8
1981-08-30 21:24:14.800 ,1,0,0.,4.8,2.,4.8,0.,4.8,1.,4.8
1981-08-30 21:24:19.600 ,1,0,0.,4.8,1.,4.8,0.,4.8,0.,4.8
1981-08-30 21:24:24.400 ,1,0,0.,4.8,3.,4.8,0.,4.8,0.,4.8
1981-08-30 21:24:29.200 ,1,0,0.,4.8,3.,4.8,1.,4.8,0.,4.8
1981-08-30 21:24:34.000 ,1,0,0.,4.8,2.,4.8,2.,4.8,0.,4.8
1981-08-30 21:24:38.800 ,1,0,0.,4.8,0.,4.8,1.,4.8,1.,4.8
1981-08-30 21:24:43.600 ,1,0,0.,4.8,3.,4.8,0.,4.8,0.,4.8
1981-08-30 21:24:48.400 ,0,0,0.,4.8,3.,4.8,0.,4.8,0.,4.8
1981-08-30 21:24:53.200 ,0,0,0.,4.8,2.,4.8,0.,4.8,0.,4.8
1981-08-30 21:24:58.000 ,0,0,0.,4.8,3.,4.8,2.,4.8,3.,4.8
1981-08-30 21:25:02.800 ,0,0,0.,4.8,6.,4.8,1.,4.8,0.,4.8
1981-08-30 21:25:07.600 ,0,0,0.,4.8,2.,4.8,0.,4.8,0.,4.8
1981-08-30 21:25:12.400 ,0,0,0.,4.8,1.,4.8,1.,4.8,0.,4.8
1981-08-30 21:25:17.200 ,0,0,0.,4.8,0.,4.8,0.,4.8,2.,4.8
1981-08-30 21:25:22.000 ,0,0,0.,4.8,5.,4.8,0.,4.8,1.,4.8
1981-08-30 21:25:26.800 ,0,0,0.,4.8,2.,4.8,0.,4.8,0.,4.8
1981-08-30 21:25:31.600 ,0,0,0.,4.8,3.,4.8,0.,4.8,0.,4.8
1981-08-30 21:25:36.400 ,0,0,0.,4.8,3.,4.8,0.,4.8,0.,4.8
1981-08-30 21:25:41.200 ,0,0,0.,4.8,2.,4.8,2.,4.8,0.,4.8
1981-08-30 21:25:46.000 ,0,0,0.,4.8,5.,4.8,0.,4.8,2.,4.8
1981-08-30 21:25:50.800 ,0,0,0.,4.8,6.,4.8,1.,4.8,2.,4.8
1981-08-30 21:25:55.600 ,0,0,0.,4.8,3.,4.8,0.,4.8,1.,4.8
1981-08-30 21:26:00.400 ,0,0,0.,4.8,3.,4.8,1.,4.8,0.,4.8
1981-08-30 21:26:05.200 ,0,0,0.,4.8,1.,4.8,0.,4.8,0.,4.8
1981-08-30 21:26:10.000 ,0,0,0.,4.8,2.,4.8,3.,4.8,0.,4.8
1981-08-30 21:26:14.800 ,0,0,0.,4.8,7.,4.8,3.,4.8,0.,4.8
1981-08-30 21:26:19.600 ,0,0,0.,4.8,2.,4.8,0.,4.8,0.,4.8
1981-08-30 21:26:24.400 ,1,0,0.,4.8,6.,4.8,2.,4.8,2.,4.8
1981-08-30 21:26:29.200 ,1,0,0.,4.8,3.,4.8,0.,4.8,0.,4.8
1981-08-30 21:26:34.000 ,1,0,0.,4.8,2.,4.8,1.,4.8,0.,4.8
1981-08-30 21:26:38.800 ,1,0,0.,4.8,1.,4.8,0.,4.8,0.,4.8
1981-08-30 21:26:43.600 ,1,0,0.,4.8,1.,4.8,1.,4.8,1.,4.8
1981-08-30 21:26:48.400 ,1,0,0.,4.8,1.,4.8,3.,4.8,0.,4.8
1981-08-30 21:26:53.200 ,1,0,0.,4.8,3.,4.8,0.,4.8,0.,4.8
1981-08-30 21:26:58.000 ,1,0,0.,4.8,2.,4.8,3.,4.8,0.,4.8
1981-08-30 21:27:02.800 ,1,0,0.,4.8,1.,4.8,0.,4.8,1.,4.8
1981-08-30 21:27:07.600 ,1,0,0.,4.8,3.,4.8,0.,4.8,0.,4.8
1981-08-30 21:27:12.400 ,2,0,0.,4.8,3.,4.8,1.,4.8,0.,4.8
1981-08-30 21:27:17.200 ,2,0,0.,4.8,4.,4.8,0.,4.8,0.,4.8
1981-08-30 21:27:22.000 ,2,0,0.,4.8,2.,4.8,0.,4.8,0.,4.8
1981-08-30 21:27:26.800 ,2,0,0.,4.8,0.,4.8,0.,4.8,0.,4.8
1981-08-30 21:27:31.600 ,2,0,0.,4.8,1.,4.8,0.,4.8,0.,4.8
1981-08-30 21:27:36.400 ,2,0,0.,4.8,0.,4.8,2.,4.8,1.,4.8
1981-08-30 21:27:41.200 ,2,0,0.,4.8,1.,4.8,0.,4.8,0.,4.8
1981-08-30 21:27:46.000 ,2,0,0.,4.8,3.,4.8,0.,4.8,0.,4.8
1981-08-30 21:27:50.800 ,2,0,0.,4.8,1.,4.8,2.,4.8,0.,4.8
1981-08-30 21:27:55.600 ,2,0,0.,4.8,1.,4.8,1.,4.8,1.,4.8
1981-08-30 21:28:00.400 ,3,0,0.,4.8,3.,4.8,1.,4.8,0.,4.8
1981-08-30 21:28:05.200 ,3,0,0.,4.8,1.,4.8,0.,4.8,0.,4.8
1981-08-30 21:28:10.000 ,3,0,0.,4.8,3.,4.8,1.,4.8,0.,4.8
1981-08-30 21:28:14.800 ,3,0,0.,4.8,1.,4.8,0.,4.8,0.,4.8
1981-08-30 21:28:19.600 ,3,0,0.,4.8,0.,4.8,0.,4.8,0.,4.8
1981-08-30 21:28:24.400 ,4,0,0.,4.8,5.,4.8,0.,4.8,0.,4.8
1981-08-30 21:28:29.200 ,4,0,0.,4.8,2.,4.8,0.,4.8,0.,4.8
1981-08-30 21:28:34.000 ,4,0,0.,4.8,2.,4.8,0.,4.8,0.,4.8
1981-08-30 21:28:38.800 ,4,0,0.,4.8,3.,4.8,0.,4.8,0.,4.8
1981-08-30 21:28:43.600 ,4,0,0.,4.8,0.,4.8,0.,4.8,0.,4.8
1981-08-30 21:28:48.400 ,5,0,0.,4.8,2.,4.8,2.,4.8,0.,4.8
1981-08-30 21:28:53.200 ,5,0,0.,4.8,1.,4.8,1.,4.8,0.,4.8
1981-08-30 21:28:58.000 ,5,0,0.,4.8,6.,4.8,0.,4.8,1.,4.8
1981-08-30 21:29:02.800 ,5,0,0.,4.8,6.,4.8,0.,4.8,1.,4.8
1981-08-30 21:29:07.600 ,5,0,0.,4.8,2.,4.8,0.,4.8,0.,4.8
1981-08-30 21:29:12.400 ,6,0,0.,4.8,1.,4.8,1.,4.8,0.,4.8
1981-08-30 21:29:17.200 ,6,0,0.,4.8,0.,4.8,1.,4.8,0.,4.8
1981-08-30 21:29:22.000 ,6,0,0.,4.8,0.,4.8,0.,4.8,0.,4.8
1981-08-30 21:29:26.800 ,6,0,0.,4.8,2.,4.8,1.,4.8,0.,4.8
1981-08-30 21:29:31.600 ,6,0,0.,4.8,2.,4.8,0.,4.8,0.,4.8
1981-08-30 21:29:36.400 ,7,0,0.,4.8,2.,4.8,1.,4.8,0.,4.8
1981-08-30 21:29:41.200 ,7,0,0.,4.8,0.,4.8,1.,4.8,0.,4.8
1981-08-30 21:29:46.000 ,7,0,0.,4.8,0.,4.8,0.,4.8,0.,4.8
1981-08-30 21:29:50.800 ,7,0,0.,4.8,0.,4.8,0.,4.8,0.,4.8
1981-08-30 21:29:55.600 ,7,0,0.,4.8,0.,4.8,1.,4.8,0.,4.8
1981-08-30 21:30:00.400 ,7,0,0.,4.8,0.,4.8,0.,4.8,0.,4.8
1981-08-30 21:30:05.200 ,7,0,0.,4.8,0.,4.8,0.,4.8,1.,4.8
1981-08-30 21:30:10.000 ,7,0,0.,4.8,0.,4.8,0.,4.8,0.,4.8
1981-08-30 21:30:14.800 ,7,0,0.,4.8,0.,4.8,1.,4.8,0.,4.8
1981-08-30 21:30:19.600 ,7,0,0.,4.8,0.,4.8,0.,4.8,0.,4.8
1981-08-30 21:30:24.400 ,6,0,0.,4.8,0.,4.8,0.,4.8,0.,4.8
1981-08-30 21:30:29.200 ,6,0,0.,4.8,1.,4.8,0.,4.8,0.,4.8
1981-08-30 21:30:34.000 ,6,0,0.,4.8,3.,4.8,0.,4.8,0.,4.8
1981-08-30 21:30:38.800 ,6,0,0.,4.8,2.,4.8,0.,4.8,0.,4.8
1981-08-30 21:30:43.600 ,6,0,0.,4.8,3.,4.8,1.,4.8,0.,4.8
1981-08-30 21:30:48.400 ,5,0,0.,4.8,0.,4.8,0.,4.8,0.,4.8
1981-08-30 21:30:53.200 ,5,0,0.,4.8,1.,4.8,0.,4.8,0.,4.8
1981-08-30 21:30:58.000 ,5,0,0.,4.8,1.,4.8,1.,4.8,0.,4.8
1981-08-30 21:31:02.800 ,5,0,0.,4.8,1.,4.8,0.,4.8,0.,4.8
1981-08-30 21:31:07.600 ,5,0,0.,4.8,1.,4.8,0.,4.8,0.,4.8
1981-08-30 21:31:12.400 ,4,0,0.,4.8,3.,4.8,1.,4.8,0.,4.8
1981-08-30 21:31:17.200 ,4,0,0.,4.8,5.,4.8,1.,4.8,1.,4.8
1981-08-30 21:31:22.000 ,4,0,0.,4.8,2.,4.8,1.,4.8,0.,4.8
1981-08-30 21:31:26.800 ,4,0,0.,4.8,1.,4.8,0.,4.8,0.,4.8
1981-08-30 21:31:31.600 ,4,0,0.,4.8,1.,4.8,1.,4.8,0.,4.8
1981-08-30 21:31:36.400 ,3,0,0.,4.8,1.,4.8,0.,4.8,1.,4.8
1981-08-30 21:31:41.200 ,3,0,0.,4.8,1.,4.8,2.,4.8,0.,4.8
1981-08-30 21:31:46.000 ,3,0,0.,4.8,2.,4.8,1.,4.8,0.,4.8
1981-08-30 21:31:50.800 ,3,0,0.,4.8,4.,4.8,1.,4.8,0.,4.8
1981-08-30 21:31:55.600 ,3,0,0.,4.8,2.,4.8,1.,4.8,0.,4.8
1981-08-30 21:32:00.400 ,2,0,0.,4.8,3.,4.8,0.,4.8,0.,4.8
1981-08-30 21:32:05.200 ,2,0,0.,4.8,1.,4.8,1.,4.8,0.,4.8
1981-08-30 21:32:10.000 ,2,0,0.,4.8,3.,4.8,0.,4.8,0.,4.8
1981-08-30 21:32:14.800 ,2,0,0.,4.8,0.,4.8,0.,4.8,2.,4.8
1981-08-30 21:32:19.600 ,2,0,0.,4.8,3.,4.8,0.,4.8,0.,4.8
1981-08-30 21:32:24.400 ,1,0,0.,4.8,1.,4.8,1.,4.8,0.,4.8
1981-08-30 21:32:29.200 ,1,0,0.,4.8,2.,4.8,0.,4.8,0.,4.8
1981-08-30 21:32:34.000 ,1,0,0.,4.8,1.,4.8,0.,4.8,0.,4.8
1981-08-30 21:32:38.800 ,1,0,0.,4.8,2.,4.8,0.,4.8,0.,4.8
1981-08-30 21:32:43.600 ,1,0,0.,4.8,6.,4.8,2.,4.8,1.,4.8
1981-08-30 21:32:48.400 ,0,0,0.,4.8,1.,4.8,1.,4.8,2.,4.8
1981-08-30 21:32:53.200 ,0,0,0.,4.8,4.,4.8,0.,4.8,1.,4.8
1981-08-30 21:32:58.000 ,0,0,0.,4.8,4.,4.8,0.,4.8,0.,4.8
1981-08-30 21:33:02.800 ,0,0,0.,4.8,3.,4.8,1.,4.8,1.,4.8
1981-08-30 21:33:07.600 ,0,0,0.,4.8,2.,4.8,0.,4.8,1.,4.8
1981-08-30 21:33:12.400 ,0,0,0.,4.8,2.,4.8,0.,4.8,1.,4.8
1981-08-30 21:33:17.200 ,0,0,0.,4.8,0.,4.8,0.,4.8,0.,4.8
1981-08-30 21:33:22.000 ,0,0,0.,4.8,2.,4.8,3.,4.8,0.,4.8
1981-08-30 21:33:26.800 ,0,0,0.,4.8,1.,4.8,1.,4.8,1.,4.8
1981-08-30 21:33:31.600 ,0,0,0.,4.8,1.,4.8,0.,4.8,0.,4.8
1981-08-30 21:33:36.400 ,1,0,0.,4.8,3.,4.8,1.,4.8,0.,4.8
1981-08-30 21:33:41.200 ,1,0,0.,4.8,3.,4.8,0.,4.8,1.,4.8
1981-08-30 21:33:46.000 ,1,0,0.,4.8,3.,4.8,1.,4.8,1.,4.8